Weather in Atbasar

Kazakhstan     51°48′56″N   68°21′29″E
В апреле 2022 года жителям России запретили посещать сайт meteo.paraplan.net по решению Генеральной прокуратуры. Аудитория сайта уменьшилась в 10 раз. Владельцы сайта не видят смысла в поддержке погодного сервера в таких условиях. Сайт будет закрыт в октябре.
temp.,
°C
wind,
m/s
gust,
m/s
humid.,
%
clouds,
%
prec.,
mm/h
press.,
hPa
HPBL,
m
30 september, fri
fri3000:00−1ne36495 0.0 1031132
03:00−3ene35585 0.0 103290
06:00−3ene33635 0.0 103349
09:00−2ene34565 0.0 1034253
12:00+2ene44405 0.0 10341237
15:00+4ene33335 0.0 10341501
18:00+4ene33321 0.0 10341454
21:00+1e34420 0.0 103654
1 october, sat
sat100:000e33460 0.0 103737
03:00−2e34520 0.0 103856
06:00−3ese33590 0.0 103933
09:00−1ese34510 0.0 1040164
12:00+4ese44350 0.0 10391069
15:00+7ese33270 0.0 10381420
18:00+6ese33270 0.0 10371345
21:00+3ese33370 0.0 103732
2 october, sun
sun200:00+1ese344338 0.0 103758
03:000ese344738 0.0 103750
06:00−1e34540 0.0 103741
09:00+1e36515 0.0 1037175
12:00+6ese44325 0.0 1036854
15:00+9ese34265 0.0 10341425
18:00+8e34275 0.0 10331180
21:00+4e34385 0.0 103358
3 october, mon
mon300:00+2e46455 0.0 103398
03:00+1e46525 0.0 103393
06:000e35580 0.0 103376
09:00+2e48520 0.0 1033224
12:00+7e67340 0.0 1032968
15:00+10e56261 0.0 10311339
18:00+9e56280 0.0 1030970
21:00+5ene48400 0.0 1032122
4 october, tue
tue400:00+3ene49510 0.0 1033175
03:00+1ene48560 0.0 1033137
06:000ene46600 0.0 1034102
09:00+2ene48550 0.0 1035238
12:00+8e57330 0.0 1035750
15:00+11ene56233 0.0 10341057
18:00+10ene46244 0.0 1034357
21:00+6ene46350 0.0 103673